Location: Lafig�re
(44.4503°N, 4.0357°E)
Time: 01:02:37
(UTC+00:00)

Transit 4A - Pass Details

Date: 29 January 2021
Orbit: 866 x 979 km, 66.8° (Epoch: 24 February)

Event Time Altitude Azimuth Distance (km) Brightness Sun altitude
Rises 01:30:15 0° 331° (NNW) 3,633 - -57.0°
Reaches altitude 10° 01:33:01 10° 339° (NNW) 2,668 - -56.7°
Maximum altitude 01:38:49 40° 48° (NE) 1,346 - -56.0°
Drops below altitude 10° 01:44:25 10° 116° (ESE) 2,581 - -55.2°
Sets 01:47:03 0° 124° (SE) 3,502 - -54.9°
